Location: The C. Gantt Observatory
(33.6981°N, 81.6836°W)
Time: 12:18:56
(UTC-04:00)

Daily predictions for brighter satellites

Satellite Brightness Start Highest point End
(mag) Time Altitude Azimuth Time Altitude Azimuth Time Altitude Azimuth
Cosmos 1674 3.6 21:06:11 10° SSE 21:09:31 29° E 21:12:53 10° NNE
Cosmos 2151 4.2 21:08:16 10° SE 21:11:32 22° E 21:14:49 10° NE
Resurs 01 Rocket 3.9 21:09:30 10° SSW 21:13:05 24° W 21:16:42 10° NW
NOSS 3-1 (A) 4.3 21:09:11 10° SSE 21:13:50 26° ESE 21:18:45 10° NE
deb Chang Zheng 4 4.1 21:13:50 10° NNE 21:17:54 38° E 21:21:56 10° SSE
Cosmos 1515 Rocket 3.6 21:20:33 10° N 21:24:56 63° E 21:29:17 10° SSE
Cosmos 1833 4.3 21:19:48 10° SSW 21:25:32 88° WNW 21:31:14 10° NNE
Cosmos 1437 3.2 21:31:31 10° SSE 21:34:37 41° E 21:37:43 10° NNE
Hubble Space Telescope 2.4 21:32:47 10° SSW 21:35:28 17° SSE 21:36:49 15° SE
ATLAS 2AS CENTAUR R/B 4.2 21:32:33 11° SE 21:36:15 16° ESE 21:40:41 10° ENE
H-2A R/B 3.8 21:32:39 10° S 21:36:20 45° W 21:40:01 10° NNW
Cosmos 1151 Rocket 3.3 21:33:30 10° N 21:37:41 47° E 21:41:22 13° SSE
USA 186 3.6 21:41:09 10° SSW 21:42:51 19° W 21:44:35 10° NW
ERS-1 Rocket 3.0 21:39:49 10° SSE 21:44:50 86° ENE 21:49:54 10° NNW
COSMOS 2428 3.9 21:41:12 10° N 21:46:02 28° ENE 21:49:37 16° ESE
Envisat 3.3 21:42:21 14° SE 21:46:33 51° ENE 21:51:27 10° N
Cosmos 1437 Rocket 2.7 21:42:48 10° N 21:46:38 84° W 21:50:26 10° S
Cosmos 2266 Rocket 4.0 21:40:49 10° S 21:47:08 84° E 21:53:21 10° N
Cosmos 1939 Rocket 2.9 21:44:35 15° SSE 21:47:45 60° ENE 21:51:36 10° N
Cosmos 1805 Rocket 4.2 21:45:34 15° SSE 21:48:51 36° E 21:52:57 10° NNE
Sakura Rocket 4.3 21:46:10 10° SSW 21:49:06 18° SSE 21:49:37 17° SSE
ERBS 3.8 21:49:50 19° ESE 21:49:50 19° ESE 21:51:47 10° ENE
Cosmos 2219 Rocket 4.1 21:46:47 10° NNE 21:49:53 15° NE 21:52:57 10° E
ATLAS CENTAUR R/B 4.3 21:56:25 10° W 21:57:18 11° WSW 21:58:11 10° WSW
NOSS 3-1 (C) 3.3 21:53:48 10° SSW 21:59:33 85° ESE 22:05:51 10° NNE
Cosmos 2315 Rocket 4.2 21:54:58 10° N 22:01:02 54° E 22:05:19 20° SSE
CZ-4 SHROUD 3.8 22:02:06 31° ESE 22:03:01 40° ENE 22:05:58 10° N
Cosmos 1726 3.6 22:00:06 10° NNE 22:03:06 22° ENE 22:03:46 21° E
OTV 4 0.5 22:00:25 10° SW 22:03:18 50° SSE 22:04:06 36° ESE
OAO 2 Rocket 3.3 21:58:16 10° WSW 22:03:35 74° SSE 22:08:54 10° E
CZ-3A R/B 4.2 21:18:28 10° WSW 22:03:35 51° S 22:07:48 21° ESE
Cosmos 1937 Rocket 4.2 22:02:33 21° SSE 22:05:13 34° E 22:09:52 10° NE
ALOS 4.5 22:01:34 10° SSW 22:05:14 23° W 22:08:55 10° NW
Cosmos 2112 Rocket 4.0 22:00:05 10° N 22:05:19 67° ENE 22:08:34 23° SSE
H-2A R/B 2.3 22:02:13 15° S 22:05:54 77° WSW 22:10:27 10° NNW
Cosmos 1666 Rocket 3.8 22:09:25 26° SSE 22:11:32 48° E 22:15:48 10° NNE
Cosmos 2298 Rocket 4.0 22:06:19 10° S 22:11:35 69° ESE 22:16:53 10° NNE
Cosmos 1707 Rocket 4.1 22:07:35 10° N 22:11:43 41° E 22:13:15 30° SE
Cosmos 1328 4.0 22:09:01 10° SSW 22:12:56 68° W 22:16:53 10° N
Cosmos 2219 3.6 22:07:49 10° SSW 22:13:32 66° WNW 22:19:15 10° NNE
Tiangong 1 2.9 22:11:51 10° W 22:14:41 31° NNW 22:17:30 10° NE
CZ-4 R/B 4.3 22:16:03 10° NNE 22:20:40 41° E 22:22:06 32° SE
Meteor 1-4 Rocket 3.9 22:18:03 10° NNE 22:21:08 24° ENE 22:21:09 24° ENE
Cosmos 2237 Rocket 3.9 22:19:08 10° NNE 22:23:05 19° ENE 22:25:15 15° E
Cosmos 2082 4.4 22:23:04 30° SE 22:24:26 34° ESE 22:29:32 10° NE
Cosmos 2322 Rocket 4.5 22:21:36 10° WNW 22:25:16 18° W 22:28:56 10° SW
DELTA 2 R/B (1) 3.5 22:20:36 10° WNW 22:26:09 79° SSW 22:28:40 34° SE
MetOp-B 4.1 22:23:58 28° SSE 22:26:50 78° ENE 22:32:12 10° N
Cosmos 2322 4.1 22:21:17 10° NNW 22:26:54 59° WSW 22:30:31 22° S
Cosmos 1271 Rocket 3.8 22:25:06 10° NNE 22:28:30 29° ENE 22:28:32 29° E
Cosmos 1745 Rocket 4.4 22:27:23 30° SE 22:29:51 44° E 22:35:39 10° NNE
Cosmos 1703 3.6 22:32:27 43° E 22:32:29 43° E 22:36:12 10° NNE
CZ-4B R/B 3.4 22:27:31 10° NNE 22:32:48 82° ESE 22:36:13 22° S
SL-14 R/B 3.2 22:31:35 36° S 22:33:07 89° W 22:37:08 10° N
Cosmos 2360 Rocket 2.9 22:28:28 10° NNW 22:33:53 49° WSW 22:37:25 21° S
H-2A R/B 3.2 22:36:57 25° E 22:38:12 28° ENE 22:42:45 10° NNE
PSLV R/B 4.0 22:38:58 40° SW 22:39:23 43° W 22:42:19 10° NNW
Cosmos 1626 3.9 22:41:26 20° ENE 22:41:26 20° ENE 22:43:16 10° NE
Meteor 1-27 4.1 22:35:08 10° N 22:40:49 87° E 22:43:17 35° S
Cosmos 1680 Rocket 4.4 22:36:24 10° NNW 22:41:22 44° WSW 22:44:23 22° SSW
SPOT 5 3.4 22:41:59 26° SSW 22:44:15 49° W 22:48:53 10° NNW
Delta 2 Rocket 3.0 22:45:09 10° WNW 22:48:40 68° N 22:48:40 68° N
Cosmos 1898 Rocket 4.0 22:44:40 10° SSW 22:49:44 58° WNW 22:54:52 10° N
SPOT 1/Viking Rocket 3.4 22:48:49 44° SSE 22:50:31 89° WSW 22:55:42 10° NNW
YAOGAN 6 2.9 22:50:10 54° SW 22:50:34 58° W 22:54:08 10° NNW
Cosmos 2227 Rocket 2.1 22:55:44 40° S 22:57:47 73° ESE 23:03:26 10° NNE
Cosmos 1300 3.8 22:59:34 10° NNW 23:03:08 37° W 23:03:49 34° WSW
Sich 1 4.1 23:03:04 25° SW 23:05:10 41° W 23:09:20 10° N
CARTOSAT-1 4.2 23:08:07 43° ENE 23:08:07 43° ENE 23:11:51 10° N
Cosmos 292 Rocket 3.5 23:03:32 10° NNW 23:08:18 89° ENE 23:08:39 77° SSE
Cosmos 2242 Rocket 3.6 23:04:25 10° N 23:08:54 72° W 23:09:20 65° SW
Cosmos 1633 Rocket 4.3 23:08:22 25° SW 23:10:16 38° W 23:14:21 10° N
Landsat 7 3.7 23:10:20 70° E 23:10:34 72° ENE 23:15:19 10° N
Cosmos 1862 Rocket 4.2 23:06:28 10° N 23:10:02 44° NE 23:10:02 44° NE
COSMOS 2455 4.3 23:07:40 10° N 23:12:31 24° NE 23:14:03 22° ENE
SL-16 R/B 3.7 23:12:56 10° N 23:17:24 23° ENE 23:18:12 22° ENE
Cosmos 2333 Rocket 2.2 23:12:58 10° NNW 23:18:42 65° ENE 23:19:24 59° ESE
FALCON 9 R/B 3.8 22:54:50 10° W 23:22:41 86° N 23:27:16 27° E
ARGOS 3.7 23:22:16 42° SW 23:23:33 52° W 23:28:48 10° NNW
Cosmos 2297 Rocket 2.0 23:23:48 67° S 23:24:38 86° ESE 23:30:19 10° NNE
DELTA 2 DEB (DPAF) 4.2 23:25:18 70° W 23:25:18 70° W 23:29:39 10° NNW
Cosmos 1455 3.2 23:21:51 10° N 23:24:28 42° N 23:24:28 42° N
ATLAS 2AS CENTAUR R/B 2.9 23:19:45 15° SSW 23:26:09 83° WNW 23:34:11 10° NNE
Terra 1.8 23:26:42 70° NE 23:26:42 70° NE 23:31:10 10° N
COSMOS 2428 3.8 23:25:13 10° NW 23:30:15 33° WSW 23:31:38 30° SW
DMSP B5D2-2 4.0 23:28:31 10° N 23:33:44 81° WNW 23:34:05 76° SW
Spot 4 4.1 23:34:28 62° NE 23:34:28 62° NE 23:38:50 10° N
Cosmos 2219 Rocket 2.2 23:28:45 10° NNW 23:34:18 68° WSW 23:34:43 65° SW
IGS 5A 4.2 23:36:25 51° N 23:36:25 51° N 23:39:37 10° N
ATLAS 3B R/B 3.3 23:37:24 10° NNW 23:43:57 42° NE 23:45:16 38° E
OAO 2 Rocket 3.6 23:43:11 10° W 23:48:06 71° NW 23:48:06 71° NW
Tiangong 1 4.3 23:49:56 10° NW 23:51:01 14° NNW 23:51:01 14° NNW
